• In Hungary
  • List of Countries
  • For 7 days
  • Water Temperature
  • Satellite Maps
  • Weather Map
  • News
  • Weather Widgets
  • user-avatar
    Login

    Hourly Weather Soro

    Today, 20 September, Thursday

    Time Temperature Precipitation Wind Pressure Humidity
    00:00 +18°C° 0 mm 7 mps 755 mmHg 79%
    01:00 +18°C° 0 mm 7 mps 755 mmHg 77%
    02:00 +17°C° 0 mm 7 mps 755 mmHg 78%
    03:00 +17°C° 0 mm 7 mps 755 mmHg 80%
    04:00 +17°C° 0 mm 7 mps 755 mmHg 82%
    05:00 +17°C° 0 mm 7 mps 756 mmHg 83%
    06:00 +17°C° 0 mm 7 mps 756 mmHg 84%
    07:00 +17°C° 0 mm 6 mps 756 mmHg 85%
    08:00 +17°C° 0.1 mm 6 mps 756 mmHg 82%
    09:00 +18°C° 0.1 mm 7 mps 756 mmHg 79%
    10:00 +20°C° 0.1 mm 7 mps 756 mmHg 75%
    11:00 +20°C° 0.1 mm 8 mps 756 mmHg 72%
    12:00 +21°C° 0.1 mm 8 mps 756 mmHg 68%
    13:00 +21°C° 0.1 mm 8 mps 756 mmHg 64%
    14:00 +21°C° 0.1 mm 7 mps 756 mmHg 66%
    15:00 +21°C° 0.1 mm 7 mps 755 mmHg 67%
    16:00 +21°C° 0.1 mm 6 mps 755 mmHg 68%
    17:00 +20°C° 0.1 mm 5 mps 755 mmHg 73%
    18:00 +19°C° 0.1 mm 4 mps 755 mmHg 78%
    19:00 +18°C° 0.1 mm 3 mps 755 mmHg 83%
    20:00 +18°C° 0 mm 4 mps 754 mmHg 85%
    21:00 +17°C° 0 mm 4 mps 754 mmHg 86%
    22:00 +16°C° 0 mm 5 mps 753 mmHg 87%
    23:00 +17°C° 0 mm 6 mps 752 mmHg 84%

    Tomorrow, 21 September, Friday

    Time Temperature Precipitation Wind Pressure Humidity
    00:00 +17°C° 0 mm 7 mps 752 mmHg 80%
    01:00 +18°C° 0 mm 8 mps 751 mmHg 77%
    02:00 +18°C° 0 mm 8 mps 750 mmHg 76%
    03:00 +18°C° 0 mm 8 mps 750 mmHg 75%
    04:00 +18°C° 0 mm 8 mps 749 mmHg 75%
    05:00 +18°C° 0 mm 9 mps 748 mmHg 74%
    06:00 +18°C° 0 mm 9 mps 747 mmHg 73%
    07:00 +18°C° 0 mm 10 mps 746 mmHg 72%
    08:00 +19°C° 0 mm 10 mps 746 mmHg 68%
    09:00 +21°C° 0 mm 11 mps 745 mmHg 64%
    10:00 +22°C° 0 mm 12 mps 744 mmHg 60%
    11:00 +20°C° 0.8 mm 13 mps 744 mmHg 65%
    12:00 +19°C° 0.8 mm 14 mps 744 mmHg 70%
    13:00 +18°C° 0.8 mm 14 mps 744 mmHg 75%
    14:00 +17°C° 0.3 mm 15 mps 744 mmHg 70%
    15:00 +15°C° 0.3 mm 15 mps 745 mmHg 65%
    16:00 +14°C° 0.3 mm 15 mps 746 mmHg 60%
    17:00 +13°C° 0 mm 15 mps 746 mmHg 60%
    18:00 +11°C° 0 mm 15 mps 746 mmHg 59%
    19:00 +12°C° 0 mm 14 mps 746 mmHg 59%
    20:00 +10°C° 0.2 mm 14 mps 747 mmHg 62%
    21:00 +10°C° 0.2 mm 13 mps 747 mmHg 66%
    22:00 +10°C° 0.2 mm 13 mps 748 mmHg 69%
    23:00 +10°C° 0.4 mm 12 mps 748 mmHg 69%

    Day after tomorrow, 22 September, Saturday

    Time Temperature Precipitation Wind Pressure Humidity
    00:00 +10°C° 0.4 mm 12 mps 749 mmHg 68%
    01:00 +11°C° 0.4 mm 11 mps 749 mmHg 68%
    02:00 +11°C° 0.1 mm 11 mps 750 mmHg 67%
    03:00 +9°C° 0.1 mm 11 mps 751 mmHg 67%
    04:00 +9°C° 0.1 mm 11 mps 751 mmHg 66%
    05:00 +9°C° 0 mm 10 mps 752 mmHg 67%
    06:00 +10°C° 0 mm 9 mps 752 mmHg 68%
    07:00 +10°C° 0 mm 8 mps 752 mmHg 68%
    08:00 +11°C° 0.1 mm 9 mps 753 mmHg 65%
    09:00 +12°C° 0.1 mm 9 mps 753 mmHg 61%
    10:00 +13°C° 0.1 mm 10 mps 753 mmHg 58%
    11:00 +13°C° 0.3 mm 11 mps 753 mmHg 57%
    12:00 +13°C° 0.3 mm 11 mps 753 mmHg 56%
    13:00 +14°C° 0.3 mm 12 mps 753 mmHg 56%
    14:00 +13°C° 0.2 mm 13 mps 753 mmHg 58%
    15:00 +13°C° 0.2 mm 13 mps 753 mmHg 60%
    16:00 +12°C° 0.2 mm 14 mps 753 mmHg 63%
    17:00 +12°C° 0.2 mm 13 mps 753 mmHg 65%
    18:00 +10°C° 0.2 mm 12 mps 754 mmHg 67%
    19:00 +11°C° 0.2 mm 11 mps 754 mmHg 68%
    20:00 +11°C° 0.1 mm 10 mps 755 mmHg 69%
    21:00 +9°C° 0.1 mm 10 mps 755 mmHg 69%
    22:00 +10°C° 0.1 mm 9 mps 755 mmHg 70%
    23:00 +10°C° 0.1 mm 9 mps 755 mmHg 70%

    23 September, Sunday

    Time Temperature Precipitation Wind Pressure Humidity
    00:00 +10°C° 0.1 mm 8 mps 755 mmHg 71%
    01:00 +9°C° 0.1 mm 8 mps 755 mmHg 71%
    02:00 +9°C° 0 mm 8 mps 755 mmHg 72%
    03:00 +9°C° 0 mm 7 mps 755 mmHg 72%
    04:00 +9°C° 0 mm 7 mps 755 mmHg 72%
    05:00 +9°C° 0 mm 6 mps 755 mmHg 71%
    06:00 +9°C° 0 mm 6 mps 754 mmHg 71%
    07:00 +9°C° 0 mm 5 mps 754 mmHg 71%
    08:00 +10°C° 0 mm 5 mps 754 mmHg 66%
    09:00 +12°C° 0 mm 4 mps 754 mmHg 60%
    10:00 +13°C° 0 mm 4 mps 754 mmHg 55%
    11:00 +13°C° 0.1 mm 3 mps 753 mmHg 55%
    12:00 +13°C° 0.1 mm 3 mps 753 mmHg 55%
    13:00 +14°C° 0.1 mm 2 mps 752 mmHg 55%
    14:00 +13°C° 0.4 mm 2 mps 751 mmHg 59%
    15:00 +13°C° 0.4 mm 2 mps 751 mmHg 63%
    16:00 +12°C° 0.4 mm 2 mps 750 mmHg 67%
    17:00 +11°C° 0.2 mm 3 mps 750 mmHg 67%
    18:00 +11°C° 0.2 mm 4 mps 750 mmHg 67%
    19:00 +10°C° 0.2 mm 5 mps 749 mmHg 67%
    20:00 +9°C° 0.1 mm 6 mps 749 mmHg 68%
    21:00 +9°C° 0.1 mm 6 mps 749 mmHg 68%
    22:00 +9°C° 0.1 mm 7 mps 749 mmHg 69%
    23:00 +9°C° 0.1 mm 7 mps 750 mmHg 68%

    24 September, Monday

    Time Temperature Precipitation Wind Pressure Humidity
    00:00 +9°C° 0.1 mm 7 mps 750 mmHg 67%
    01:00 +9°C° 0.1 mm 8 mps 751 mmHg 66%
    02:00 +9°C° 0.1 mm 8 mps 751 mmHg 66%
    03:00 +8°C° 0.1 mm 9 mps 752 mmHg 66%
    04:00 +8°C° 0.1 mm 10 mps 753 mmHg 65%
    05:00 +8°C° 0.4 mm 10 mps 754 mmHg 68%
    06:00 +7°C° 0.4 mm 10 mps 755 mmHg 71%
    07:00 +7°C° 0.4 mm 10 mps 757 mmHg 74%
    08:00 +8°C° 0.2 mm 9 mps 758 mmHg 66%
    09:00 +10°C° 0.2 mm 9 mps 759 mmHg 57%
    10:00 +11°C° 0.2 mm 8 mps 760 mmHg 49%
    11:00 +11°C° 0.2 mm 8 mps 761 mmHg 50%
    12:00 +11°C° 0.2 mm 8 mps 762 mmHg 51%
    13:00 +11°C° 0.2 mm 9 mps 763 mmHg 51%
    14:00 +11°C° 0.1 mm 9 mps 763 mmHg 51%
    15:00 +11°C° 0.1 mm 9 mps 763 mmHg 50%
    16:00 +11°C° 0.1 mm 9 mps 764 mmHg 49%
    17:00 +10°C° 0.1 mm 9 mps 764 mmHg 55%
    18:00 +10°C° 0.1 mm 9 mps 764 mmHg 60%
    19:00 +8°C° 0.1 mm 9 mps 765 mmHg 65%
    20:00 +8°C° 0 mm 9 mps 765 mmHg 67%
    21:00 +7°C° 0 mm 9 mps 765 mmHg 68%
    22:00 +7°C° 0 mm 9 mps 766 mmHg 70%
    23:00 +7°C° 0 mm 9 mps 766 mmHg 69%

    25 September, Tuesday

    Time Temperature Precipitation Wind Pressure Humidity
    00:00 +7°C° 0 mm 9 mps 766 mmHg 69%
    01:00 +8°C° 0 mm 9 mps 766 mmHg 68%
    02:00 +8°C° 0 mm 9 mps 766 mmHg 69%
    03:00 +8°C° 0 mm 10 mps 766 mmHg 71%
    04:00 +8°C° 0 mm 10 mps 766 mmHg 72%
    05:00 +8°C° 0.1 mm 10 mps 766 mmHg 73%
    06:00 +9°C° 0.1 mm 11 mps 766 mmHg 73%
    07:00 +9°C° 0.1 mm 12 mps 766 mmHg 74%
    08:00 +10°C° 0.1 mm 12 mps 766 mmHg 72%
    09:00 +12°C° 0.1 mm 13 mps 766 mmHg 70%
    10:00 +12°C° 0.1 mm 13 mps 766 mmHg 68%
    11:00 +13°C° 0.1 mm 12 mps 766 mmHg 64%
    12:00 +13°C° 0.1 mm 12 mps 766 mmHg 61%
    13:00 +14°C° 0.1 mm 12 mps 767 mmHg 57%
    14:00 +14°C° 0.3 mm 12 mps 767 mmHg 61%
    15:00 +14°C° 0.3 mm 12 mps 767 mmHg 64%
    16:00 +13°C° 0.3 mm 12 mps 767 mmHg 68%
    17:00 +13°C° 0 mm 11 mps 767 mmHg 70%
    18:00 +12°C° 0 mm 10 mps 767 mmHg 72%
    19:00 +11°C° 0 mm 10 mps 767 mmHg 75%
    20:00 +11°C° 0 mm 9 mps 768 mmHg 76%
    21:00 +11°C° 0 mm 8 mps 768 mmHg 77%
    22:00 +10°C° 0 mm 8 mps 768 mmHg 78%
    23:00 +10°C° 0 mm 7 mps 768 mmHg 79%
    Show more